Time,TemperatureF,DewpointF,PressureIn,WindDirection,WindDirectionDegrees,WindSpeedMPH,WindSpeedGustMPH,Humidity,HourlyPrecipIn,Conditions,Clouds,dailyrainin,SoftwareType,DateUTC
2013-03-13 00:00:00,28.6,11.0,29.58,SW,225,0.0,2.0,48,0.00,,,0.21,WUHU21623XXSP,2013-03-13 04:00:00,
2013-03-13 00:01:00,28.6,11.0,29.58,SW,225,0.0,2.0,48,0.00,,,0.00,WUHU21623XXSP,2013-03-13 04:01:00,
2013-03-13 00:06:00,28.6,11.0,29.58,SSW,202,2.0,2.0,48,0.00,,,0.00,WUHU21623XXSP,2013-03-13 04:06:00,
2013-03-13 00:11:00,28.6,11.0,29.58,SSW,202,1.1,2.0,48,0.00,,,0.00,WUHU21623XXSP,2013-03-13 04:11:00,
2013-03-13 00:16:00,28.8,11.2,29.58,SSW,202,1.6,2.9,48,0.00,,,0.00,WUHU21623XXSP,2013-03-13 04:16:00,
2013-03-13 00:21:00,28.8,11.2,29.58,SSW,202,0.0,2.9,48,0.00,,,0.00,WUHU21623XXSP,2013-03-13 04:21:00,
2013-03-13 00:26:00,28.9,11.3,29.58,SSW,202,0.9,1.3,48,0.00,,,0.00,WUHU21623XXSP,2013-03-13 04:26:00,
2013-03-13 00:31:00,28.9,11.3,29.58,SSW,202,0.0,1.3,48,0.00,,,0.00,WUHU21623XXSP,2013-03-13 04:31:00,
2013-03-13 00:36:00,29.1,11.5,29.57,SSW,202,0.0,0.0,48,0.00,,,0.00,WUHU21623XXSP,2013-03-13 04:36:00,
2013-03-13 00:41:00,29.1,11.5,29.57,SSW,202,2.0,2.7,48,0.00,,,0.00,WUHU21623XXSP,2013-03-13 04:41:00,
2013-03-13 00:47:00,29.1,11.5,29.57,South,180,0.0,3.6,48,0.00,,,0.00,WUHU21623XXSP,2013-03-13 04:47:00,
2013-03-13 00:52:00,29.1,11.5,29.57,South,180,2.3,4.7,48,0.00,,,0.00,WUHU21623XXSP,2013-03-13 04:52:00,
2013-03-13 00:57:00,29.1,11.5,29.56,South,180,2.0,4.7,48,0.00,,,0.00,WUHU21623XXSP,2013-03-13 04:57:00,
2013-03-13 01:02:00,29.1,11.5,29.56,South,180,0.0,3.4,48,0.00,,,0.00,WUHU21623XXSP,2013-03-13 05:02:00,
2013-03-13 01:07:00,29.1,11.5,29.57,SSW,202,0.0,0.0,48,0.00,,,0.00,WUHU21623XXSP,2013-03-13 05:07:00,
2013-03-13 01:12:00,29.1,11.5,29.56,South,180,0.0,0.0,48,0.00,,,0.00,WUHU21623XXSP,2013-03-13 05:12:00,
2013-03-13 01:17:00,29.1,11.5,29.56,South,180,0.0,0.0,48,0.00,,,0.00,WUHU21623XXSP,2013-03-13 05:17:00,
2013-03-13 01:22:00,29.1,11.5,29.56,South,180,0.0,0.0,48,0.00,,,0.00,WUHU21623XXSP,2013-03-13 05:22:00,
2013-03-13 01:27:00,29.1,11.5,29.56,South,180,0.0,0.0,48,0.00,,,0.00,WUHU21623XXSP,2013-03-13 05:27:00,
2013-03-13 01:32:00,29.1,11.5,29.56,South,180,0.0,0.0,48,0.00,,,0.00,WUHU21623XXSP,2013-03-13 05:32:00,
2013-03-13 01:37:00,28.9,11.3,29.56,South,180,0.0,0.0,48,0.00,,,0.00,WUHU21623XXSP,2013-03-13 05:37:00,
2013-03-13 01:42:00,28.9,11.3,29.56,South,180,0.0,0.0,48,0.00,,,0.00,WUHU21623XXSP,2013-03-13 05:42:00,
2013-03-13 01:47:00,28.8,11.2,29.56,South,180,0.0,0.0,48,0.00,,,0.00,WUHU21623XXSP,2013-03-13 05:47:00,
2013-03-13 01:52:00,28.8,11.2,29.56,South,180,0.0,0.0,48,0.00,,,0.00,WUHU21623XXSP,2013-03-13 05:52:00,
2013-03-13 01:57:00,28.8,11.2,29.55,South,180,0.0,0.0,48,0.00,,,0.00,WUHU21623XXSP,2013-03-13 05:57:00,
2013-03-13 02:02:00,28.8,11.2,29.55,South,180,0.0,0.0,48,0.00,,,0.00,WUHU21623XXSP,2013-03-13 06:02:00,
2013-03-13 02:07:00,28.8,11.2,29.55,South,180,0.0,0.0,48,0.00,,,0.00,WUHU21623XXSP,2013-03-13 06:07:00,
2013-03-13 02:13:00,28.8,11.2,29.55,South,180,0.0,0.0,48,0.00,,,0.00,WUHU21623XXSP,2013-03-13 06:13:00,
2013-03-13 02:18:00,28.8,11.2,29.55,South,180,0.0,0.0,48,0.00,,,0.00,WUHU21623XXSP,2013-03-13 06:18:00,
2013-03-13 02:23:00,28.9,11.3,29.55,South,180,0.0,0.0,48,0.00,,,0.00,WUHU21623XXSP,2013-03-13 06:23:00,
2013-03-13 02:28:00,28.9,11.3,29.54,South,180,0.0,0.0,48,0.00,,,0.00,WUHU21623XXSP,2013-03-13 06:28:00,
2013-03-13 02:33:00,28.9,11.3,29.55,South,180,3.8,3.8,48,0.00,,,0.00,WUHU21623XXSP,2013-03-13 06:33:00,
2013-03-13 02:38:00,28.9,11.3,29.54,South,180,0.0,3.8,48,0.00,,,0.00,WUHU21623XXSP,2013-03-13 06:38:00,
2013-03-13 02:43:00,28.9,11.3,29.54,South,180,0.0,0.0,48,0.00,,,0.00,WUHU21623XXSP,2013-03-13 06:43:00,
2013-03-13 02:48:00,29.1,11.5,29.54,South,180,0.0,0.9,48,0.00,,,0.00,WUHU21623XXSP,2013-03-13 06:48:00,
2013-03-13 02:53:00,29.1,12.7,29.54,South,180,0.0,1.1,50,0.00,,,0.00,WUHU21623XXSP,2013-03-13 06:53:00,
2013-03-13 02:58:00,29.1,12.7,29.53,South,180,0.0,1.1,50,0.00,,,0.00,WUHU21623XXSP,2013-03-13 06:58:00,
2013-03-13 03:03:00,29.1,12.7,29.53,South,180,0.0,0.0,50,0.00,,,0.00,WUHU21623XXSP,2013-03-13 07:03:00,
2013-03-13 03:08:00,29.1,13.8,29.53,South,180,0.0,0.0,53,0.00,,,0.00,WUHU21623XXSP,2013-03-13 07:08:00,
2013-03-13 03:13:00,29.1,13.8,29.53,SSW,202,0.0,0.0,53,0.00,,,0.00,WUHU21623XXSP,2013-03-13 07:13:00,
2013-03-13 03:18:00,29.1,13.8,29.53,SW,225,0.0,0.0,53,0.00,,,0.00,WUHU21623XXSP,2013-03-13 07:18:00,
2013-03-13 03:23:00,29.1,13.8,29.53,West,270,0.0,0.0,53,0.00,,,0.00,WUHU21623XXSP,2013-03-13 07:23:00,
2013-03-13 03:28:00,29.1,12.7,29.53,WSW,247,0.0,0.0,50,0.00,,,0.00,WUHU21623XXSP,2013-03-13 07:28:00,
2013-03-13 03:33:00,29.1,12.7,29.53,WSW,247,0.0,0.0,50,0.00,,,0.00,WUHU21623XXSP,2013-03-13 07:33:00,
2013-03-13 03:38:00,29.3,12.9,29.53,SW,225,0.0,0.0,50,0.00,,,0.00,WUHU21623XXSP,2013-03-13 07:38:00,
2013-03-13 03:43:00,29.1,12.7,29.53,SW,225,0.0,0.0,50,0.00,,,0.00,WUHU21623XXSP,2013-03-13 07:43:00,
2013-03-13 03:48:00,29.1,11.5,29.52,SW,225,0.0,0.0,48,0.00,,,0.00,WUHU21623XXSP,2013-03-13 07:48:00,
2013-03-13 03:53:00,29.3,14.0,29.52,SW,225,0.0,0.0,53,0.00,,,0.00,WUHU21623XXSP,2013-03-13 07:53:00,
2013-03-13 03:58:00,29.1,11.5,29.52,SSW,202,0.0,0.0,48,0.00,,,0.00,WUHU21623XXSP,2013-03-13 07:58:00,
2013-03-13 04:03:00,29.3,12.9,29.52,SW,225,0.0,0.0,50,0.00,,,0.00,WUHU21623XXSP,2013-03-13 08:03:00,
2013-03-13 04:08:00,29.3,12.9,29.52,SW,225,0.0,0.0,50,0.00,,,0.00,WUHU21623XXSP,2013-03-13 08:08:00,
2013-03-13 04:13:00,29.1,12.7,29.53,WNW,292,0.0,0.0,50,0.00,,,0.00,WUHU21623XXSP,2013-03-13 08:13:00,
2013-03-13 04:18:00,28.8,11.2,29.53,WNW,292,0.0,0.0,48,0.00,,,0.00,WUHU21623XXSP,2013-03-13 08:18:00,
2013-03-13 04:23:00,28.4,10.9,29.53,WNW,292,0.0,0.0,48,0.00,,,0.00,WUHU21623XXSP,2013-03-13 08:23:00,
2013-03-13 04:28:00,28.0,10.5,29.53,NW,315,0.0,0.0,48,0.00,,,0.00,WUHU21623XXSP,2013-03-13 08:28:00,
2013-03-13 04:33:00,27.7,10.2,29.53,NW,315,0.0,0.0,48,0.00,,,0.00,WUHU21623XXSP,2013-03-13 08:33:00,
2013-03-13 04:38:00,27.5,10.0,29.53,WNW,292,0.0,0.0,48,0.00,,,0.00,WUHU21623XXSP,2013-03-13 08:38:00,
2013-03-13 04:43:00,27.5,10.0,29.53,WNW,292,0.0,0.0,48,0.00,,,0.00,WUHU21623XXSP,2013-03-13 08:43:00,
2013-03-13 04:48:00,27.3,9.8,29.53,NNW,337,0.0,0.0,48,0.00,,,0.00,WUHU21623XXSP,2013-03-13 08:48:00,
2013-03-13 04:53:00,27.3,9.8,29.53,WNW,292,0.0,0.0,48,0.00,,,0.00,WUHU21623XXSP,2013-03-13 08:53:00,
2013-03-13 04:58:00,27.1,9.7,29.53,NNW,337,0.0,0.0,48,0.00,,,0.00,WUHU21623XXSP,2013-03-13 08:58:00,
2013-03-13 05:03:00,27.0,9.6,29.53,NNW,337,0.0,0.0,48,0.00,,,0.00,WUHU21623XXSP,2013-03-13 09:03:00,
2013-03-13 05:08:00,27.0,9.6,29.54,WNW,292,0.0,0.0,48,0.00,,,0.00,WUHU21623XXSP,2013-03-13 09:08:00,
2013-03-13 05:13:00,26.8,9.4,29.54,NNW,337,0.0,0.0,48,0.00,,,0.00,WUHU21623XXSP,2013-03-13 09:13:00,
2013-03-13 05:18:00,26.8,9.4,29.54,NW,315,0.0,0.0,48,0.00,,,0.00,WUHU21623XXSP,2013-03-13 09:18:00,
2013-03-13 05:23:00,26.8,9.4,29.55,WNW,292,0.0,0.0,48,0.00,,,0.00,WUHU21623XXSP,2013-03-13 09:23:00,
2013-03-13 05:28:00,26.8,9.4,29.54,WNW,292,0.0,0.0,48,0.00,,,0.00,WUHU21623XXSP,2013-03-13 09:28:00,
2013-03-13 05:33:00,26.4,9.0,29.54,West,270,0.0,0.0,48,0.00,,,0.00,WUHU21623XXSP,2013-03-13 09:33:00,
2013-03-13 05:39:00,26.4,9.0,29.54,West,270,0.0,0.0,48,0.00,,,0.00,WUHU21623XXSP,2013-03-13 09:39:00,
2013-03-13 05:44:00,26.2,8.8,29.54,West,270,0.0,0.0,48,0.00,,,0.00,WUHU21623XXSP,2013-03-13 09:44:00,
2013-03-13 05:49:00,26.1,8.7,29.54,West,270,0.0,0.0,48,0.00,,,0.00,WUHU21623XXSP,2013-03-13 09:49:00,
2013-03-13 05:54:00,25.9,8.6,29.55,WNW,292,0.0,0.0,48,0.00,,,0.00,WUHU21623XXSP,2013-03-13 09:54:00,
2013-03-13 05:59:00,25.7,8.4,29.55,WNW,292,0.0,0.0,48,0.00,,,0.00,WUHU21623XXSP,2013-03-13 09:59:00,
2013-03-13 06:04:00,25.7,8.4,29.56,WNW,292,0.0,0.0,48,0.00,,,0.00,WUHU21623XXSP,2013-03-13 10:04:00,
2013-03-13 06:09:00,25.5,8.2,29.56,West,270,0.0,0.0,48,0.00,,,0.00,WUHU21623XXSP,2013-03-13 10:09:00,
2013-03-13 06:14:00,25.5,8.2,29.56,WNW,292,0.0,0.0,48,0.00,,,0.00,WUHU21623XXSP,2013-03-13 10:14:00,
2013-03-13 06:19:00,25.3,8.0,29.56,West,270,0.0,0.0,48,0.00,,,0.00,WUHU21623XXSP,2013-03-13 10:19:00,
2013-03-13 06:24:00,25.5,8.2,29.56,WNW,292,0.0,0.0,48,0.00,,,0.00,WUHU21623XXSP,2013-03-13 10:24:00,
2013-03-13 06:29:00,25.5,8.2,29.56,WNW,292,0.0,0.0,48,0.00,,,0.00,WUHU21623XXSP,2013-03-13 10:29:00,
2013-03-13 06:34:00,25.5,8.2,29.56,North,354,5.0,11.0,48,0.00,,,0.00,WUHU21623XXSP,2013-03-13 10:34:00,
2013-03-13 06:39:00,25.5,8.2,29.57,NNW,329,3.3,11.0,48,0.00,,,0.00,WUHU21623XXSP,2013-03-13 10:39:00,
2013-03-13 06:44:00,25.5,8.2,29.57,WNW,283,2.9,4.9,48,0.00,,,0.00,WUHU21623XXSP,2013-03-13 10:44:00,
2013-03-13 06:49:00,25.2,7.9,29.57,West,270,0.0,4.9,48,0.00,,,0.00,WUHU21623XXSP,2013-03-13 10:49:00,
2013-03-13 06:54:00,25.0,7.7,29.57,NNW,337,3.6,4.0,48,0.00,,,0.00,WUHU21623XXSP,2013-03-13 10:54:00,
2013-03-13 06:59:00,24.6,7.4,29.57,SW,225,2.7,3.6,48,0.00,,,0.00,WUHU21623XXSP,2013-03-13 10:59:00,
2013-03-13 07:04:00,24.4,7.2,29.58,WNW,292,2.0,3.1,48,0.00,,,0.00,WUHU21623XXSP,2013-03-13 11:04:00,
2013-03-13 07:09:00,24.1,6.9,29.57,WNW,292,4.3,4.3,48,0.00,,,0.00,WUHU21623XXSP,2013-03-13 11:09:00,
2013-03-13 07:14:00,23.9,6.7,29.58,WNW,292,5.6,5.8,48,0.00,,,0.00,WUHU21623XXSP,2013-03-13 11:14:00,
2013-03-13 07:19:00,23.9,6.7,29.58,WNW,302,3.7,6.5,48,0.00,,,0.00,WUHU21623XXSP,2013-03-13 11:19:00,
2013-03-13 07:24:00,23.9,6.7,29.58,WNW,292,0.0,6.5,48,0.00,,,0.00,WUHU21623XXSP,2013-03-13 11:24:00,
2013-03-13 07:29:00,23.9,6.7,29.58,NNW,341,4.1,9.6,48,0.00,,,0.00,WUHU21623XXSP,2013-03-13 11:29:00,
2013-03-13 07:34:00,23.9,6.7,29.59,WNW,292,2.3,9.6,48,0.00,,,0.00,WUHU21623XXSP,2013-03-13 11:34:00,
2013-03-13 07:39:00,24.1,6.9,29.59,NNW,337,0.0,5.6,48,0.00,,,0.00,WUHU21623XXSP,2013-03-13 11:39:00,
2013-03-13 07:44:00,24.1,6.9,29.59,NNW,337,0.0,4.3,48,0.00,,,0.00,WUHU21623XXSP,2013-03-13 11:44:00,
2013-03-13 07:49:00,24.3,7.1,29.59,NW,315,8.9,8.9,48,0.00,,,0.00,WUHU21623XXSP,2013-03-13 11:49:00,
2013-03-13 07:54:00,24.3,7.1,29.59,NNW,331,3.7,9.4,48,0.00,,,0.00,WUHU21623XXSP,2013-03-13 11:54:00,
2013-03-13 07:59:00,24.1,6.9,29.59,WNW,292,1.8,9.4,48,0.00,,,0.00,WUHU21623XXSP,2013-03-13 11:59:00,
2013-03-13 08:04:00,24.1,6.9,29.60,NNW,332,4.6,11.9,48,0.00,,,0.00,WUHU21623XXSP,2013-03-13 12:04:00,
2013-03-13 08:09:00,23.9,6.7,29.60,West,270,0.9,11.9,48,0.00,,,0.00,WUHU21623XXSP,2013-03-13 12:09:00,
2013-03-13 08:14:00,23.9,6.7,29.60,WNW,292,0.0,4.9,48,0.00,,,0.00,WUHU21623XXSP,2013-03-13 12:14:00,
2013-03-13 08:19:00,23.7,6.5,29.60,West,275,3.6,5.6,48,0.00,,,0.00,WUHU21623XXSP,2013-03-13 12:19:00,
2013-03-13 08:24:00,23.4,6.3,29.60,WNW,290,1.2,5.6,48,0.00,,,0.00,WUHU21623XXSP,2013-03-13 12:24:00,
2013-03-13 08:29:00,23.2,6.1,29.60,WNW,292,7.8,7.8,48,0.00,,,0.00,WUHU21623XXSP,2013-03-13 12:29:00,
2013-03-13 08:34:00,22.8,5.7,29.60,WNW,283,3.5,8.7,48,0.00,,,0.00,WUHU21623XXSP,2013-03-13 12:34:00,
2013-03-13 08:39:00,22.6,5.5,29.61,WSW,240,2.4,8.9,48,0.00,,,0.00,WUHU21623XXSP,2013-03-13 12:39:00,
2013-03-13 08:44:00,22.6,5.5,29.61,WNW,292,2.9,8.9,48,0.00,,,0.00,WUHU21623XXSP,2013-03-13 12:44:00,
2013-03-13 08:49:00,22.6,5.5,29.61,West,281,2.0,6.3,48,0.00,,,0.00,WUHU21623XXSP,2013-03-13 12:49:00,
2013-03-13 08:54:00,22.6,5.5,29.61,West,276,3.2,6.3,48,0.00,,,0.00,WUHU21623XXSP,2013-03-13 12:54:00,
2013-03-13 08:59:00,22.6,5.5,29.61,NNW,332,4.4,8.3,48,0.00,,,0.00,WUHU21623XXSP,2013-03-13 12:59:00,
2013-03-13 09:04:00,22.6,5.5,29.62,WNW,292,4.6,8.5,48,0.00,,,0.00,WUHU21623XXSP,2013-03-13 13:04:00,
2013-03-13 09:10:00,22.6,5.5,29.62,West,270,4.5,8.5,48,0.00,,,0.00,WUHU21623XXSP,2013-03-13 13:10:00,
2013-03-13 09:14:00,22.8,5.7,29.61,NNW,337,7.2,7.2,48,0.00,,,0.00,WUHU21623XXSP,2013-03-13 13:14:00,
2013-03-13 09:20:00,22.6,5.5,29.62,NW,312,4.6,8.5,48,0.00,,,0.00,WUHU21623XXSP,2013-03-13 13:20:00,
2013-03-13 09:25:00,23.0,5.9,29.62,WSW,247,3.6,8.5,48,0.00,,,0.00,WUHU21623XXSP,2013-03-13 13:25:00,
2013-03-13 09:30:00,23.2,6.1,29.62,WNW,282,3.8,6.7,48,0.00,,,0.00,WUHU21623XXSP,2013-03-13 13:30:00,
2013-03-13 09:35:00,23.4,6.3,29.62,WNW,287,3.4,7.4,48,0.00,,,0.00,WUHU21623XXSP,2013-03-13 13:35:00,
2013-03-13 09:40:00,23.4,6.3,29.62,NW,315,4.5,7.4,48,0.00,,,0.00,WUHU21623XXSP,2013-03-13 13:40:00,
2013-03-13 09:45:00,23.5,6.3,29.62,WSW,248,4.0,6.7,48,0.00,,,0.00,WUHU21623XXSP,2013-03-13 13:45:00,
2013-03-13 09:50:00,23.9,6.7,29.63,WNW,292,6.3,8.1,48,0.00,,,0.00,WUHU21623XXSP,2013-03-13 13:50:00,
2013-03-13 09:55:00,23.9,6.7,29.62,West,279,3.9,8.1,48,0.00,,,0.00,WUHU21623XXSP,2013-03-13 13:55:00,
2013-03-13 10:00:00,24.3,7.1,29.63,WNW,288,4.0,9.4,48,0.00,,,0.00,WUHU21623XXSP,2013-03-13 14:00:00,
2013-03-13 10:05:00,24.4,7.2,29.63,WNW,292,5.8,9.6,48,0.00,,,0.00,WUHU21623XXSP,2013-03-13 14:05:00,
2013-03-13 10:10:00,24.4,7.2,29.63,WNW,289,4.9,9.6,48,0.00,,,0.00,WUHU21623XXSP,2013-03-13 14:10:00,
2013-03-13 10:15:00,24.6,7.4,29.63,NW,307,4.4,8.5,48,0.00,,,0.00,WUHU21623XXSP,2013-03-13 14:15:00,
2013-03-13 10:21:00,25.0,7.7,29.64,West,270,2.5,8.1,48,0.00,,,0.00,WUHU21623XXSP,2013-03-13 14:21:00,
2013-03-13 10:26:00,25.2,7.9,29.64,WNW,283,3.4,6.3,48,0.00,,,0.00,WUHU21623XXSP,2013-03-13 14:26:00,
2013-03-13 10:31:00,25.5,8.2,29.64,WSW,247,4.5,6.3,48,0.00,,,0.00,WUHU21623XXSP,2013-03-13 14:31:00,
2013-03-13 10:36:00,25.7,8.4,29.64,WNW,292,5.4,10.1,48,0.00,,,0.00,WUHU21623XXSP,2013-03-13 14:36:00,
2013-03-13 10:41:00,26.1,8.7,29.64,WNW,283,4.7,32.4,48,0.00,,,0.00,WUHU21623XXSP,2013-03-13 14:41:00,
2013-03-13 10:46:00,26.8,9.4,29.64,WNW,292,8.3,32.4,48,0.00,,,0.00,WUHU21623XXSP,2013-03-13 14:46:00,
2013-03-13 10:51:00,26.8,9.4,29.64,West,270,4.2,8.5,48,0.00,,,0.00,WUHU21623XXSP,2013-03-13 14:51:00,
2013-03-13 10:56:00,27.0,9.6,29.64,NNW,337,5.4,8.5,48,0.00,,,0.00,WUHU21623XXSP,2013-03-13 14:56:00,
2013-03-13 11:02:00,27.3,9.8,29.64,NW,315,5.6,8.1,48,0.00,,,0.00,WUHU21623XXSP,2013-03-13 15:02:00,
2013-03-13 11:07:00,27.5,10.0,29.64,NW,310,5.4,8.7,48,0.00,,,0.00,WUHU21623XXSP,2013-03-13 15:07:00,
2013-03-13 11:12:00,27.3,9.8,29.64,WSW,254,4.3,8.7,48,0.00,,,0.00,WUHU21623XXSP,2013-03-13 15:12:00,
2013-03-13 11:17:00,27.5,10.0,29.64,WNW,292,6.9,10.3,48,0.00,,,0.00,WUHU21623XXSP,2013-03-13 15:17:00,
2013-03-13 11:22:00,27.3,9.8,29.64,WSW,241,3.5,10.3,48,0.00,,,0.00,WUHU21623XXSP,2013-03-13 15:22:00,
2013-03-13 11:27:00,27.3,9.8,29.64,NW,314,5.0,12.1,48,0.00,,,0.00,WUHU21623XXSP,2013-03-13 15:27:00,
2013-03-13 11:32:00,27.0,9.6,29.65,NW,306,5.6,12.1,48,0.00,,,0.00,WUHU21623XXSP,2013-03-13 15:32:00,
2013-03-13 11:37:00,26.6,9.2,29.65,WNW,292,1.9,11.0,48,0.00,,,0.00,WUHU21623XXSP,2013-03-13 15:37:00,
2013-03-13 11:42:00,26.8,9.4,29.65,WSW,254,4.6,7.4,48,0.00,,,0.00,WUHU21623XXSP,2013-03-13 15:42:00,
2013-03-13 11:47:00,27.0,9.6,29.65,West,270,7.2,7.6,48,0.00,,,0.00,WUHU21623XXSP,2013-03-13 15:47:00,
2013-03-13 11:52:00,26.8,9.4,29.65,NNW,337,4.9,8.3,48,0.00,,,0.00,WUHU21623XXSP,2013-03-13 15:52:00,
2013-03-13 11:57:00,27.0,9.6,29.66,NW,319,3.6,8.5,48,0.00,,,0.00,WUHU21623XXSP,2013-03-13 15:57:00,
2013-03-13 12:02:00,27.1,9.7,29.65,WNW,282,3.6,8.5,48,0.00,,,0.00,WUHU21623XXSP,2013-03-13 16:02:00,
2013-03-13 12:07:00,27.1,9.7,29.66,WSW,247,7.4,9.6,48,0.00,,,0.00,WUHU21623XXSP,2013-03-13 16:07:00,
2013-03-13 12:12:00,27.3,9.8,29.66,NW,305,4.1,9.6,48,0.00,,,0.00,WUHU21623XXSP,2013-03-13 16:12:00,
2013-03-13 12:17:00,27.0,9.6,29.67,NW,323,4.8,11.0,48,0.00,,,0.00,WUHU21623XXSP,2013-03-13 16:17:00,
2013-03-13 12:22:00,26.8,9.4,29.66,NW,313,4.5,11.0,48,0.00,,,0.00,WUHU21623XXSP,2013-03-13 16:22:00,
2013-03-13 12:27:00,26.6,9.2,29.66,NW,312,3.4,7.4,48,0.00,,,0.00,WUHU21623XXSP,2013-03-13 16:27:00,
2013-03-13 12:32:00,26.8,9.4,29.66,WNW,292,7.4,7.4,48,0.00,,,0.00,WUHU21623XXSP,2013-03-13 16:32:00,
2013-03-13 12:37:00,26.8,9.4,29.66,NW,309,6.8,13.0,48,0.00,,,0.00,WUHU21623XXSP,2013-03-13 16:37:00,
2013-03-13 12:42:00,26.2,8.8,29.66,NW,308,4.8,14.5,48,0.00,,,0.00,WUHU21623XXSP,2013-03-13 16:42:00,
2013-03-13 12:47:00,26.2,8.8,29.67,NW,305,6.1,14.5,48,0.00,,,0.00,WUHU21623XXSP,2013-03-13 16:47:00,
2013-03-13 12:52:00,26.8,9.4,29.67,WNW,285,5.1,12.1,48,0.00,,,0.00,WUHU21623XXSP,2013-03-13 16:52:00,
2013-03-13 12:57:00,27.1,9.7,29.67,NW,312,6.7,10.7,48,0.00,,,0.00,WUHU21623XXSP,2013-03-13 16:57:00,
2013-03-13 13:02:00,27.3,9.8,29.67,NNW,337,5.6,10.7,48,0.00,,,0.00,WUHU21623XXSP,2013-03-13 17:02:00,
2013-03-13 13:07:00,27.3,9.8,29.67,WNW,292,6.9,12.1,48,0.00,,,0.00,WUHU21623XXSP,2013-03-13 17:07:00,
2013-03-13 13:12:00,27.5,10.0,29.67,WNW,292,6.3,12.1,48,0.00,,,0.00,WUHU21623XXSP,2013-03-13 17:12:00,
2013-03-13 13:17:00,27.5,10.0,29.67,West,270,5.1,13.2,48,0.00,,,0.00,WUHU21623XXSP,2013-03-13 17:17:00,
2013-03-13 13:22:00,28.0,10.5,29.67,NW,309,6.5,57.0,48,0.00,,,0.00,WUHU21623XXSP,2013-03-13 17:22:00,
2013-03-13 13:27:00,28.2,10.7,29.68,NNW,328,5.5,57.0,48,0.00,,,0.00,WUHU21623XXSP,2013-03-13 17:27:00,
2013-03-13 13:32:00,27.5,10.0,29.68,NNW,335,4.3,11.9,48,0.00,,,0.00,WUHU21623XXSP,2013-03-13 17:32:00,
2013-03-13 13:37:00,27.5,10.0,29.68,WNW,292,6.3,57.0,48,0.00,,,0.00,WUHU21623XXSP,2013-03-13 17:37:00,
2013-03-13 13:42:00,27.9,10.4,29.68,NNW,334,4.7,57.0,48,0.00,,,0.00,WUHU21623XXSP,2013-03-13 17:42:00,
2013-03-13 13:47:00,27.5,10.0,29.69,WNW,292,3.6,9.8,48,0.00,,,0.00,WUHU21623XXSP,2013-03-13 17:47:00,
2013-03-13 13:52:00,27.5,10.0,29.69,NW,309,3.8,9.8,48,0.00,,,0.00,WUHU21623XXSP,2013-03-13 17:52:00,
2013-03-13 13:57:00,27.5,10.0,29.69,WNW,292,4.7,9.4,48,0.00,,,0.00,WUHU21623XXSP,2013-03-13 17:57:00,
2013-03-13 14:02:00,27.3,9.8,29.69,NNW,337,6.3,9.2,48,0.00,,,0.00,WUHU21623XXSP,2013-03-13 18:02:00,
2013-03-13 14:08:00,27.5,10.0,29.69,WNW,286,2.3,57.0,48,0.00,,,0.00,WUHU21623XXSP,2013-03-13 18:08:00,
2013-03-13 14:13:00,28.0,10.5,29.69,WNW,301,3.5,57.0,48,0.00,,,0.00,WUHU21623XXSP,2013-03-13 18:13:00,
2013-03-13 14:18:00,27.9,10.4,29.69,WNW,288,2.7,5.6,48,0.00,,,0.00,WUHU21623XXSP,2013-03-13 18:18:00,
2013-03-13 14:23:00,27.9,10.4,29.69,NW,318,3.2,6.5,48,0.00,,,0.00,WUHU21623XXSP,2013-03-13 18:23:00,
2013-03-13 14:28:00,27.9,10.4,29.69,NW,318,4.6,7.4,48,0.00,,,0.00,WUHU21623XXSP,2013-03-13 18:28:00,
2013-03-13 14:33:00,28.0,10.5,29.69,WNW,292,8.1,8.3,48,0.00,,,0.00,WUHU21623XXSP,2013-03-13 18:33:00,
2013-03-13 14:38:00,28.4,10.9,29.69,WNW,292,4.7,11.2,48,0.00,,,0.00,WUHU21623XXSP,2013-03-13 18:38:00,
2013-03-13 14:43:00,28.6,11.0,29.69,WNW,296,3.9,11.2,48,0.00,,,0.00,WUHU21623XXSP,2013-03-13 18:43:00,
2013-03-13 14:48:00,28.9,11.3,29.69,WNW,291,3.7,11.0,48,0.00,,,0.00,WUHU21623XXSP,2013-03-13 18:48:00,
2013-03-13 14:53:00,29.1,11.5,29.69,WNW,297,4.5,11.0,48,0.00,,,0.00,WUHU21623XXSP,2013-03-13 18:53:00,
2013-03-13 14:58:00,28.9,11.3,29.69,West,270,1.9,7.6,48,0.00,,,0.00,WUHU21623XXSP,2013-03-13 18:58:00,
2013-03-13 15:03:00,28.6,11.0,29.70,NW,312,6.8,11.4,48,0.00,,,0.00,WUHU21623XXSP,2013-03-13 19:03:00,
2013-03-13 15:08:00,28.6,11.0,29.70,North,0,9.6,11.4,48,0.00,,,0.00,WUHU21623XXSP,2013-03-13 19:08:00,
2013-03-13 15:13:00,28.6,11.0,29.70,WNW,303,3.1,10.7,48,0.00,,,0.00,WUHU21623XXSP,2013-03-13 19:13:00,
2013-03-13 15:18:00,29.1,11.5,29.70,NW,312,4.4,9.2,48,0.00,,,0.00,WUHU21623XXSP,2013-03-13 19:18:00,
2013-03-13 15:23:00,29.1,11.5,29.70,WNW,294,3.6,9.2,48,0.00,,,0.00,WUHU21623XXSP,2013-03-13 19:23:00,
2013-03-13 15:28:00,29.7,12.1,29.70,NW,315,4.5,8.9,48,0.00,,,0.00,WUHU21623XXSP,2013-03-13 19:28:00,
2013-03-13 15:33:00,30.4,12.7,29.70,West,270,3.8,8.9,48,0.00,,,0.00,WUHU21623XXSP,2013-03-13 19:33:00,
2013-03-13 15:38:00,30.6,12.9,29.70,NW,305,4.8,8.7,48,0.00,,,0.00,WUHU21623XXSP,2013-03-13 19:38:00,
2013-03-13 15:43:00,30.6,12.9,29.70,WNW,294,5.7,10.1,48,0.00,,,0.00,WUHU21623XXSP,2013-03-13 19:43:00,
2013-03-13 15:48:00,30.4,12.7,29.70,NW,318,6.0,10.1,48,0.00,,,0.00,WUHU21623XXSP,2013-03-13 19:48:00,
2013-03-13 15:53:00,30.0,12.3,29.71,WNW,292,4.3,9.2,48,0.00,,,0.00,WUHU21623XXSP,2013-03-13 19:53:00,
2013-03-13 15:58:00,30.2,12.5,29.71,NNW,337,8.5,57.0,48,0.00,,,0.00,WUHU21623XXSP,2013-03-13 19:58:00,
2013-03-13 16:03:00,30.4,12.7,29.71,NW,317,3.4,57.0,48,0.00,,,0.00,WUHU21623XXSP,2013-03-13 20:03:00,
2013-03-13 16:08:00,30.4,12.7,29.71,WNW,298,5.9,11.2,48,0.00,,,0.00,WUHU21623XXSP,2013-03-13 20:08:00,
2013-03-13 16:13:00,30.4,12.7,29.72,WNW,302,4.6,9.4,48,0.00,,,0.00,WUHU21623XXSP,2013-03-13 20:13:00,
2013-03-13 16:19:00,30.4,12.7,29.72,NNW,331,8.8,57.0,48,0.00,,,0.00,WUHU21623XXSP,2013-03-13 20:19:00,
2013-03-13 16:24:00,30.0,12.3,29.72,WNW,301,4.1,57.0,48,0.00,,,0.00,WUHU21623XXSP,2013-03-13 20:24:00,
2013-03-13 16:29:00,30.4,12.7,29.72,West,278,4.3,57.0,48,0.00,,,0.00,WUHU21623XXSP,2013-03-13 20:29:00,
2013-03-13 16:34:00,30.6,12.9,29.72,NNW,336,7.3,57.0,48,0.00,,,0.00,WUHU21623XXSP,2013-03-13 20:34:00,
2013-03-13 16:39:00,30.7,13.0,29.72,NNW,340,10.1,57.0,48,0.00,,,0.00,WUHU21623XXSP,2013-03-13 20:39:00,
2013-03-13 16:44:00,30.2,12.5,29.72,NNW,337,13.6,57.0,48,0.00,,,0.00,WUHU21623XXSP,2013-03-13 20:44:00,
2013-03-13 16:49:00,29.8,12.2,29.72,NW,308,5.0,57.0,48,0.00,,,0.00,WUHU21623XXSP,2013-03-13 20:49:00,
2013-03-13 16:54:00,29.8,12.2,29.72,NNW,338,8.0,57.0,48,0.00,,,0.00,WUHU21623XXSP,2013-03-13 20:54:00,
2013-03-13 16:59:00,30.4,12.7,29.72,NNW,335,7.1,57.0,48,0.00,,,0.00,WUHU21623XXSP,2013-03-13 20:59:00,
2013-03-13 17:04:00,30.6,12.9,29.73,NW,304,9.5,57.0,48,0.00,,,0.00,WUHU21623XXSP,2013-03-13 21:04:00,
2013-03-13 17:09:00,30.4,12.7,29.72,NNW,331,9.6,57.0,48,0.00,,,0.00,WUHU21623XXSP,2013-03-13 21:09:00,
2013-03-13 17:14:00,30.4,12.7,29.73,NW,322,9.8,57.0,48,0.00,,,0.00,WUHU21623XXSP,2013-03-13 21:14:00,
2013-03-13 17:19:00,30.6,12.9,29.73,North,0,57.0,57.0,48,0.00,,,0.00,WUHU21623XXSP,2013-03-13 21:19:00,
2013-03-13 17:24:00,30.6,12.9,29.73,NW,307,5.1,57.0,48,0.00,,,0.00,WUHU21623XXSP,2013-03-13 21:24:00,
2013-03-13 17:29:00,30.4,12.7,29.73,WNW,290,4.2,57.0,48,0.00,,,0.00,WUHU21623XXSP,2013-03-13 21:29:00,
2013-03-13 17:34:00,29.8,12.2,29.73,NW,320,3.7,57.0,48,0.00,,,0.00,WUHU21623XXSP,2013-03-13 21:34:00,
2013-03-13 17:39:00,30.0,12.3,29.73,WNW,292,7.4,57.0,48,0.00,,,0.00,WUHU21623XXSP,2013-03-13 21:39:00,
2013-03-13 17:44:00,29.8,12.2,29.74,NNE,22,4.5,57.0,48,0.00,,,0.00,WUHU21623XXSP,2013-03-13 21:44:00,
2013-03-13 17:49:00,29.8,12.2,29.74,NNW,337,8.3,57.0,48,0.00,,,0.00,WUHU21623XXSP,2013-03-13 21:49:00,
2013-03-13 17:54:00,29.8,12.2,29.74,NNW,332,8.6,57.0,48,0.00,,,0.00,WUHU21623XXSP,2013-03-13 21:54:00,
2013-03-13 17:59:00,30.0,12.3,29.74,North,0,57.0,57.0,48,0.00,,,0.00,WUHU21623XXSP,2013-03-13 21:59:00,
2013-03-13 18:04:00,30.4,12.7,29.74,NNW,340,8.9,57.0,48,0.00,,,0.00,WUHU21623XXSP,2013-03-13 22:04:00,
2013-03-13 18:09:00,30.4,12.7,29.74,WSW,247,3.1,57.0,48,0.00,,,0.00,WUHU21623XXSP,2013-03-13 22:09:00,
2013-03-13 18:14:00,30.4,12.7,29.75,NNW,337,9.6,57.0,48,0.00,,,0.00,WUHU21623XXSP,2013-03-13 22:14:00,
2013-03-13 18:19:00,30.2,12.5,29.74,NNW,333,10.3,57.0,48,0.00,,,0.00,WUHU21623XXSP,2013-03-13 22:19:00,
2013-03-13 18:24:00,30.0,12.3,29.75,NNW,329,8.6,57.0,48,0.00,,,0.00,WUHU21623XXSP,2013-03-13 22:24:00,
2013-03-13 18:29:00,29.8,12.2,29.75,NW,315,5.1,57.0,48,0.00,,,0.00,WUHU21623XXSP,2013-03-13 22:29:00,
2013-03-13 18:34:00,29.8,12.2,29.75,WNW,292,7.4,57.0,48,0.00,,,0.00,WUHU21623XXSP,2013-03-13 22:34:00,
2013-03-13 18:39:00,29.8,12.2,29.75,NNW,347,12.1,57.0,48,0.00,,,0.00,WUHU21623XXSP,2013-03-13 22:39:00,
2013-03-13 18:44:00,29.7,12.1,29.75,NNW,346,13.1,57.0,48,0.00,,,0.00,WUHU21623XXSP,2013-03-13 22:44:00,
2013-03-13 18:49:00,29.3,11.7,29.75,North,351,15.8,57.0,48,0.00,,,0.00,WUHU21623XXSP,2013-03-13 22:49:00,
2013-03-13 18:54:00,29.3,11.7,29.76,NW,315,4.9,57.0,48,0.00,,,0.00,WUHU21623XXSP,2013-03-13 22:54:00,
2013-03-13 18:59:00,29.1,11.5,29.76,NNW,337,5.1,57.0,48,0.00,,,0.00,WUHU21623XXSP,2013-03-13 22:59:00,
2013-03-13 19:04:00,28.9,11.3,29.76,WNW,294,2.5,57.0,48,0.00,,,0.00,WUHU21623XXSP,2013-03-13 23:04:00,
2013-03-13 19:09:00,28.8,11.2,29.76,NW,308,4.3,57.0,48,0.00,,,0.00,WUHU21623XXSP,2013-03-13 23:09:00,
2013-03-13 19:14:00,28.6,11.0,29.77,NNW,338,7.9,57.0,48,0.00,,,0.00,WUHU21623XXSP,2013-03-13 23:14:00,
2013-03-13 19:19:00,28.6,11.0,29.78,NNW,332,8.9,57.0,48,0.00,,,0.00,WUHU21623XXSP,2013-03-13 23:19:00,
2013-03-13 19:24:00,28.4,10.9,29.77,WNW,292,4.7,57.0,48,0.00,,,0.00,WUHU21623XXSP,2013-03-13 23:24:00,
2013-03-13 19:29:00,28.2,10.7,29.77,NW,321,3.6,57.0,48,0.00,,,0.00,WUHU21623XXSP,2013-03-13 23:29:00,
2013-03-13 19:34:00,28.0,10.5,29.77,NW,321,5.0,57.0,48,0.00,,,0.00,WUHU21623XXSP,2013-03-13 23:34:00,
2013-03-13 19:39:00,28.0,10.5,29.78,WNW,292,8.5,57.0,48,0.00,,,0.00,WUHU21623XXSP,2013-03-13 23:39:00,
2013-03-13 19:44:00,27.9,10.4,29.78,NNW,346,11.3,57.0,48,0.00,,,0.00,WUHU21623XXSP,2013-03-13 23:44:00,
2013-03-13 19:49:00,27.7,10.2,29.78,NW,326,6.3,57.0,48,0.00,,,0.00,WUHU21623XXSP,2013-03-13 23:49:00,
2013-03-13 19:54:00,27.5,10.0,29.79,NNW,343,8.7,57.0,48,0.00,,,0.00,WUHU21623XXSP,2013-03-13 23:54:00,
2013-03-13 19:59:00,27.5,10.0,29.79,NNW,341,9.8,57.0,48,0.00,,,0.00,WUHU21623XXSP,2013-03-13 23:59:00,
2013-03-13 20:04:00,27.3,9.8,29.79,NW,309,3.7,57.0,48,0.00,,,0.00,WUHU21623XXSP,2013-03-14 00:04:00,
2013-03-13 20:09:00,27.1,9.7,29.79,NNW,339,10.1,57.0,48,0.00,,,0.00,WUHU21623XXSP,2013-03-14 00:09:00,
2013-03-13 20:14:00,27.1,9.7,29.79,NNW,346,7.5,57.0,48,0.00,,,0.00,WUHU21623XXSP,2013-03-14 00:14:00,
2013-03-13 20:19:00,27.0,9.6,29.80,NNW,343,8.3,57.0,48,0.00,,,0.00,WUHU21623XXSP,2013-03-14 00:19:00,
2013-03-13 20:24:00,26.8,9.4,29.80,NNW,343,10.9,57.0,48,0.00,,,0.00,WUHU21623XXSP,2013-03-14 00:24:00,
2013-03-13 20:29:00,26.8,9.4,29.80,NW,313,4.9,57.0,48,0.00,,,0.00,WUHU21623XXSP,2013-03-14 00:29:00,
2013-03-13 20:34:00,26.8,9.4,29.80,NW,309,5.1,14.1,48,0.00,,,0.00,WUHU21623XXSP,2013-03-14 00:34:00,
2013-03-13 20:39:00,26.8,9.4,29.80,WNW,292,3.6,14.1,48,0.00,,,0.00,WUHU21623XXSP,2013-03-14 00:39:00,
2013-03-13 20:44:00,26.8,9.4,29.81,WNW,284,4.2,57.0,48,0.00,,,0.00,WUHU21623XXSP,2013-03-14 00:44:00,
2013-03-13 20:49:00,26.8,9.4,29.81,West,273,3.2,57.0,48,0.00,,,0.00,WUHU21623XXSP,2013-03-14 00:49:00,
2013-03-13 20:54:00,26.6,9.2,29.81,North,0,57.0,57.0,48,0.00,,,0.00,WUHU21623XXSP,2013-03-14 00:54:00,
2013-03-13 20:59:00,26.4,9.0,29.81,NNW,337,10.1,57.0,48,0.00,,,0.00,WUHU21623XXSP,2013-03-14 00:59:00,
2013-03-13 21:04:00,26.4,9.0,29.81,NNW,343,7.8,57.0,48,0.00,,,0.00,WUHU21623XXSP,2013-03-14 01:04:00,
2013-03-13 21:09:00,26.2,8.8,29.81,NW,310,4.7,57.0,48,0.00,,,0.00,WUHU21623XXSP,2013-03-14 01:09:00,
2013-03-13 21:15:00,26.2,8.8,29.81,North,350,8.1,57.0,48,0.00,,,0.00,WUHU21623XXSP,2013-03-14 01:15:00,
2013-03-13 21:20:00,26.2,8.8,29.81,NNW,345,11.3,57.0,48,0.00,,,0.00,WUHU21623XXSP,2013-03-14 01:20:00,
2013-03-13 21:25:00,26.2,8.8,29.81,WNW,295,3.0,57.0,48,0.00,,,0.00,WUHU21623XXSP,2013-03-14 01:25:00,
2013-03-13 21:30:00,26.2,8.8,29.81,WNW,292,3.6,57.0,48,0.00,,,0.00,WUHU21623XXSP,2013-03-14 01:30:00,
2013-03-13 21:35:00,26.1,8.7,29.82,NW,318,5.0,57.0,48,0.00,,,0.00,WUHU21623XXSP,2013-03-14 01:35:00,
2013-03-13 21:40:00,26.1,8.7,29.81,NNW,340,7.4,57.0,48,0.00,,,0.00,WUHU21623XXSP,2013-03-14 01:40:00,
2013-03-13 21:45:00,26.1,8.7,29.82,NNW,345,7.2,57.0,48,0.00,,,0.00,WUHU21623XXSP,2013-03-14 01:45:00,
2013-03-13 21:50:00,26.1,8.7,29.82,WNW,292,6.7,57.0,48,0.00,,,0.00,WUHU21623XXSP,2013-03-14 01:50:00,
2013-03-13 21:55:00,26.1,8.7,29.82,NW,313,3.4,57.0,48,0.00,,,0.00,WUHU21623XXSP,2013-03-14 01:55:00,
2013-03-13 22:00:00,25.9,8.6,29.82,NNW,345,7.8,57.0,48,0.00,,,0.00,WUHU21623XXSP,2013-03-14 02:00:00,
2013-03-13 22:05:00,25.7,8.4,29.82,NNE,22,6.3,57.0,48,0.00,,,0.00,WUHU21623XXSP,2013-03-14 02:05:00,
2013-03-13 22:10:00,25.7,8.4,29.82,NNW,337,4.9,57.0,48,0.00,,,0.00,WUHU21623XXSP,2013-03-14 02:10:00,
2013-03-13 22:15:00,25.7,8.4,29.83,NNW,330,4.4,57.0,48,0.00,,,0.00,WUHU21623XXSP,2013-03-14 02:15:00,
2013-03-13 22:20:00,25.7,8.4,29.83,NNW,336,8.8,57.0,48,0.00,,,0.00,WUHU21623XXSP,2013-03-14 02:20:00,
2013-03-13 22:25:00,25.5,8.2,29.83,WNW,292,4.5,57.0,48,0.00,,,0.00,WUHU21623XXSP,2013-03-14 02:25:00,
2013-03-13 22:30:00,25.5,8.2,29.83,WNW,287,4.7,8.1,48,0.00,,,0.00,WUHU21623XXSP,2013-03-14 02:30:00,
2013-03-13 22:35:00,25.5,8.2,29.84,NW,315,3.6,8.3,48,0.00,,,0.00,WUHU21623XXSP,2013-03-14 02:35:00,
2013-03-13 22:40:00,25.5,8.2,29.84,NNW,332,8.3,57.0,48,0.00,,,0.00,WUHU21623XXSP,2013-03-14 02:40:00,
2013-03-13 22:45:00,25.3,8.0,29.84,WNW,293,3.0,57.0,48,0.00,,,0.00,WUHU21623XXSP,2013-03-14 02:45:00,
2013-03-13 22:50:00,25.3,8.0,29.84,NW,317,4.0,57.0,48,0.00,,,0.00,WUHU21623XXSP,2013-03-14 02:50:00,
2013-03-13 22:55:00,25.3,8.0,29.84,West,270,5.8,57.0,48,0.00,,,0.00,WUHU21623XXSP,2013-03-14 02:55:00,
2013-03-13 23:00:00,25.2,7.9,29.84,WNW,288,2.7,57.0,48,0.00,,,0.00,WUHU21623XXSP,2013-03-14 03:00:00,
2013-03-13 23:05:00,25.2,7.9,29.84,WNW,292,4.9,57.0,48,0.00,,,0.00,WUHU21623XXSP,2013-03-14 03:05:00,
2013-03-13 23:10:00,25.2,7.9,29.84,West,279,4.0,57.0,48,0.00,,,0.00,WUHU21623XXSP,2013-03-14 03:10:00,
2013-03-13 23:15:00,25.0,7.7,29.84,North,0,57.0,57.0,48,0.00,,,0.00,WUHU21623XXSP,2013-03-14 03:15:00,
2013-03-13 23:20:00,25.0,7.7,29.84,WNW,301,4.8,57.0,48,0.00,,,0.00,WUHU21623XXSP,2013-03-14 03:20:00,
2013-03-13 23:25:00,25.0,7.7,29.84,WSW,247,5.4,57.0,48,0.00,,,0.00,WUHU21623XXSP,2013-03-14 03:25:00,
2013-03-13 23:30:00,24.8,7.5,29.84,NNW,337,6.7,57.0,48,0.00,,,0.00,WUHU21623XXSP,2013-03-14 03:30:00,
2013-03-13 23:35:00,24.6,7.4,29.84,NW,311,4.7,57.0,48,0.00,,,0.00,WUHU21623XXSP,2013-03-14 03:35:00,
2013-03-13 23:40:00,24.6,7.4,29.84,NNW,340,7.8,57.0,48,0.00,,,0.00,WUHU21623XXSP,2013-03-14 03:40:00,
2013-03-13 23:45:00,24.6,7.4,29.85,NNW,340,8.3,57.0,48,0.00,,,0.00,WUHU21623XXSP,2013-03-14 03:45:00,
2013-03-13 23:50:00,24.4,7.2,29.84,WNW,299,3.2,57.0,48,0.00,,,0.00,WUHU21623XXSP,2013-03-14 03:50:00,
2013-03-13 23:55:00,24.3,7.1,29.85,NW,319,2.8,57.0,48,0.00,,,0.00,WUHU21623XXSP,2013-03-14 03:55:00,